[[{"header":{"parameterUnit":"m.s-1","parameterCategory":2,"la1":30.2991,"la2":30.254,"lo1":-89.0895,"lo2":-89.0444,"dy":0.0017,"dx":0.0017,"nx":28,"ny":28,"refTime":"2024-02-10T09:00:00:Z","depth":"0","parameterNumber":2,"parameterNumberName":"U-component_of_CURRENTS"},"data":[0,0,0,0,0,0,0,0,0,0,0,0,0,0,0,0,0,0,0,0,0,0,0,0,0,0,0,0,0,0,0,0,0,0,0,0,0,0,0,0,0,0,0,0,0,0,0,0,0,0,0,0,0,0,0,0,0,0,0.1163,0.1164,0,0.1162,0.1162,0.1162,0.1167,0.1167,0.1167,0.1167,0.1139,0.1138,0.1137,0,0,0,0,0,0,0,0,0,0,0,0,0,0.1182,0.1181,0.1163,0.1164,0.1164,0.1162,0.1162,0.1162,0.1166,0.1167,0.1167,0.1167,0.1139,0.1138,0.1137,0,0,0,0,0,0,0,0,0,0,0,0,0,0.1176,0.1181,0.1163,0.1166,0.1167,0.1162,0.1162,0.1162,0.1166,0.1167,0.1167,0.1167,0.114,0.1138,0.1137,0.1122,0,0,0.1132,0.1132,0,0,0,0,0,0,0,0,0.1176,0.1175,0.1166,0.1166,0.1166,0.1165,0.1158,0.1147,0.1166,0.1166,0.1167,0.1168,0.1145,0.1144,0.1142,0.112,0.1119,0.1132,0.1131,0.1131,0.113,0,0,0,0,0,0,0,0.1177,0.1175,0.1162,0.1166,0.1166,0.1172,0.1171,0.1156,0.1153,0.1166,0.1166,0.1167,0.1145,0.1143,0.1141,0.1119,0.1132,0.1131,0.113,0.113,0.1129,0.113,0,0,0,0,0,0,0.1177,0.1175,0.1162,0.1162,0.1173,0.1171,0.117,0.1165,0.1154,0.1153,0.1167,0.1167,0.1146,0.1143,0.114,0.1169,0.1131,0.1129,0.1129,0.1129,0.113,0.1131,0,0,0,0,0,0,0.1177,0.1176,0.1162,0.117,0.1169,0.117,0.1164,0.1165,0.1165,0.1155,0.1153,0.1168,0.1146,0.1142,0.1138,0.1166,0.1129,0.1127,0.1128,0.1129,0.113,0.1195,0,0,0,0,0,0,0.1178,0.1176,0.1177,0.117,0.1168,0.1162,0.1164,0.1164,0.1165,0.1166,0.1155,0.1152,0.1146,0.114,0.1136,0.1163,0.1126,0.1127,0.1128,0.113,0.1192,0.1199,0.1204,0,0,0,0,0,0.1178,0.118,0.1177,0.1176,0.1168,0.1162,0.1161,0.1163,0.1165,0.1165,0.1164,0.1153,0.1148,0.1139,0.1135,0.1162,0.1126,0.1128,0.113,0.1189,0.1197,0.1204,0,0,0,0,0,0,0.1195,0.118,0.1177,0.1176,0.1169,0.1163,0.1169,0.1163,0.1162,0.1165,0.1155,0.1152,0.1162,0.1147,0.1138,0.1167,0.1138,0.1139,0.1185,0.1193,0.1199,0.1234,0.1125,0,0,0,0,0,0.1197,0.1189,0.1179,0.1178,0.1178,0.1172,0.1172,0.1168,0.1165,0.1165,0.1157,0.1156,0.1165,0.1166,0.1161,0.1169,0.1208,0.1186,0.1192,0.1197,0.1223,0.1304,0.1321,0.1137,0.1137,0.1137,0,0,0.12,0.1194,0.1189,0.118,0.1179,0.1185,0.1173,0.1172,0.1184,0.1161,0.1174,0.1169,0.117,0.1188,0.1191,0.118,0.1271,0.12,0.1205,0.1228,0.1308,0.1327,0.1343,0.1138,0.1138,0.1138,0,0,0.1206,0.1201,0.1199,0.1199,0.1196,0.1194,0.1194,0.1186,0.1193,0.1196,0.1197,0.1215,0.1202,0.1229,0.1238,0.1272,0.1297,0.1262,0.1327,0.1405,0.1422,0.1438,0.1522,0.1545,0.127,0.127,0.1271,0,0.1212,0.1212,0.1199,0.1206,0.1218,0.1201,0.1215,0.1217,0.1208,0.1233,0.1207,0.1249,0.1234,0.1301,0.1314,0.129,0.1341,0.13,0.1417,0.1433,0.1448,0.1531,0.1554,0.1274,0.1273,0.1273,0.1273,0,0.1219,0.1226,0.123,0.1234,0.1244,0.125,0.1257,0.1267,0.1269,0.1281,0.1332,0.1325,0.1365,0.1357,0.1344,0.1442,0.1448,0.1414,0.1405,0.1471,0.1553,0.1577,0.1279,0.1277,0.1276,0.1276,0,0,0.1208,0.1229,0.1231,0.1251,0.1263,0.1272,0.1307,0.1343,0.1392,0.1386,0.1463,0.1472,0.1485,0.1497,0.1492,0.155,0.1683,0.1531,0.1533,0.1628,0.188,0.1969,0.2003,0.1676,0.168,0.1683,0.1901,0,0.1218,0.1243,0.1255,0.1291,0.1308,0.133,0.1373,0.1409,0.1439,0.1503,0.1531,0.1587,0.1535,0.157,0.1623,0.1666,0.1747,0.1629,0.1791,0.1797,0.188,0.2034,0.2045,0.2248,0.1924,0.1928,0.1931,0,0.1217,0.124,0.1276,0.134,0.1354,0.1379,0.1469,0.1505,0.1594,0.1628,0.1698,0.1719,0.1813,0.1749,0.1897,0.1828,0.1873,0.1899,0.1907,0.199,0.1932,0.2127,0.2303,0.2275,0.1967,0.1965,0.1962,0,0.1211,0.1257,0.1292,0.1307,0.1372,0.1414,0.1459,0.1545,0.1606,0.1722,0.1789,0.1884,0.1956,0.2022,0.2078,0.2004,0.2249,0.2148,0.2281,0.2287,0.2331,0.2335,0.2514,0.2284,0.2284,0.2283,0.2283,0,0.1211,0.1236,0.1293,0.131,0.1379,0.1429,0.152,0.1582,0.17,0.1799,0.1858,0.1971,0.203,0.2158,0.2174,0.2343,0.234,0.2358,0.2376,0.2354,0.2357,0.2358,0.2303,0.2291,0.229,0.2288,0.2287,0,0.1179,0.1214,0.1257,0.1338,0.1369,0.1418,0.154,0.1613,0.1728,0.1866,0.1916,0.2081,0.227,0.2349,0.2494,0.2501,0.2587,0.267,0.2653,0.2667,0.2735,0.2682,0.2741,0.2644,0.2861,0.2865,0.2868,0,0.1159,0.1176,0.1261,0.1296,0.1329,0.1413,0.1478,0.1606,0.1696,0.1936,0.2013,0.2251,0.2425,0.2706,0.28,0.2942,0.2775,0.3003,0.286,0.282,0.2772,0.2557,0.2449,0.2939,0.2943,0.2946,0.2948,0,0.1125,0.1155,0.1196,0.1267,0.1332,0.141,0.152,0.1596,0.177,0.1919,0.2157,0.233,0.2661,0.2864,0.3078,0.3129,0.2903,0.307,0.3034,0.2896,0.2668,0.2555,0.2704,0.2975,0.2972,0.297,0.2969,0.2968,0.1096,0.1117,0.1178,0.1243,0.1314,0.1398,0.1464,0.1606,0.1769,0.2011,0.2203,0.2481,0.2826,0.3157,0.319,0.3307,0.3127,0.3246,0.3203,0.3,0.2863,0.3097,0.3373,0.3373,0.3373,0.3372,0.3372,0,0.1067,0.1102,0.1155,0.1238,0.1295,0.1352,0.1487,0.1567,0.1746,0.2025,0.2263,0.2699,0.2988,0.3209,0.3485,0.3453,0.3186,0.3378,0.3064,0.2957,0.3224,0.3186,0.3427,0.3427,0.3427,0.3427,0.3427,0.3427,0.1054,0.1089,0.1123,0.1201,0.1259,0.1336,0.1405,0.154,0.1736,0.2076,0.2368,0.2615,0.3076,0.3501,0.3626,0.3543,0.3219,0.3158,0.3018,0.3229,0.3209,0.3191,0.3145,0.3373,0.3373,0.2633,0.2629,0.2625]},{"header":{"parameterUnit":"m.s-1","parameterCategory":2,"la1":30.2991,"la2":30.254,"lo1":-89.0895,"lo2":-89.0444,"dy":0.0017,"dx":0.0017,"nx":28,"ny":28,"refTime":"2024-02-10T09:00:00:Z","depth":"0","parameterNumber":3,"parameterNumberName":"V-component_of_CURRENTS"},"data":[0,0,0,0,0,0,0,0,0,0,0,0,0,0,0,0,0,0,0,0,0,0,0,0,0,0,0,0,0,0,0,0,0,0,0,0,0,0,0,0,0,0,0,0,0,0,0,0,0,0,0,0,0,0,0,0,0,0,-0.03,-0.03,0,-0.0337,-0.0337,-0.0337,-0.0376,-0.0376,-0.0377,-0.0378,-0.0391,-0.0391,-0.039,0,0,0,0,0,0,0,0,0,0,0,0,0,-0.0286,-0.0286,-0.03,-0.03,-0.0301,-0.0337,-0.0337,-0.0338,-0.0376,-0.0377,-0.0377,-0.0378,-0.0391,-0.0391,-0.039,0,0,0,0,0,0,0,0,0,0,0,0,0,-0.0304,-0.0286,-0.0299,-0.0325,-0.0327,-0.0337,-0.0337,-0.0338,-0.0376,-0.0377,-0.0377,-0.0378,-0.0391,-0.0391,-0.039,-0.0371,0,0,-0.039,-0.0389,0,0,0,0,0,0,0,0,-0.0302,-0.0304,-0.032,-0.0323,-0.0326,-0.0353,-0.0337,-0.0348,-0.0375,-0.0357,-0.0378,-0.0379,-0.0376,-0.0377,-0.0381,-0.0371,-0.0372,-0.0389,-0.0389,-0.0389,-0.0389,0,0,0,0,0,0,0,-0.0301,-0.0303,-0.0314,-0.0321,-0.0324,-0.0342,-0.0345,-0.034,-0.036,-0.0358,-0.0361,-0.0366,-0.0377,-0.0381,-0.0382,-0.0372,-0.0389,-0.0389,-0.0389,-0.0389,-0.039,-0.039,0,0,0,0,0,0,-0.0296,-0.0301,-0.0312,-0.0315,-0.0317,-0.0342,-0.0345,-0.0343,-0.036,-0.0364,-0.0365,-0.0368,-0.0382,-0.0382,-0.0382,-0.0375,-0.0389,-0.0389,-0.0389,-0.0389,-0.039,-0.039,0,0,0,0,0,0,-0.0295,-0.0296,-0.0311,-0.031,-0.0313,-0.0341,-0.0338,-0.0343,-0.0349,-0.0366,-0.037,-0.0366,-0.0382,-0.0383,-0.0382,-0.0375,-0.0389,-0.0388,-0.0389,-0.0389,-0.039,-0.035,0,0,0,0,0,0,-0.0294,-0.0295,-0.0291,-0.0309,-0.0313,-0.0306,-0.0337,-0.0343,-0.0351,-0.0355,-0.0368,-0.037,-0.0383,-0.0382,-0.0382,-0.0375,-0.0388,-0.0389,-0.0389,-0.039,-0.0351,-0.0349,-0.0347,0,0,0,0,0,-0.0294,-0.0278,-0.029,-0.0292,-0.0306,-0.0305,-0.0308,-0.0331,-0.035,-0.0342,-0.0362,-0.037,-0.0385,-0.0382,-0.0381,-0.0374,-0.0389,-0.0389,-0.039,-0.0352,-0.0349,-0.0347,0,0,0,0,0,0,-0.0264,-0.0281,-0.0295,-0.0284,-0.0292,-0.0312,-0.0309,-0.0326,-0.0336,-0.0342,-0.0363,-0.0366,-0.0368,-0.0376,-0.0372,-0.0379,-0.0391,-0.0392,-0.0363,-0.036,-0.0358,-0.0339,-0.0388,0,0,0,0,0,-0.0256,-0.0252,-0.0269,-0.026,-0.0264,-0.0286,-0.0291,-0.0304,-0.0317,-0.0323,-0.0335,-0.0353,-0.0368,-0.0367,-0.038,-0.0369,-0.0389,-0.0369,-0.0367,-0.0365,-0.0351,-0.0387,-0.0387,-0.0391,-0.0391,-0.0391,0,0,-0.0242,-0.0251,-0.0249,-0.0254,-0.0265,-0.0257,-0.029,-0.0289,-0.0284,-0.032,-0.0315,-0.0343,-0.0367,-0.0368,-0.0369,-0.037,-0.0376,-0.0366,-0.0363,-0.035,-0.0388,-0.0387,-0.0387,-0.0392,-0.0392,-0.0392,0,0,-0.0205,-0.0219,-0.0203,-0.0207,-0.0219,-0.0232,-0.0229,-0.0245,-0.0255,-0.0252,-0.0291,-0.0314,-0.0319,-0.0344,-0.0357,-0.0347,-0.0369,-0.0353,-0.0316,-0.0352,-0.0352,-0.0352,-0.038,-0.0382,-0.0346,-0.0346,-0.0346,0,-0.0186,-0.0171,-0.0196,-0.0182,-0.0179,-0.0217,-0.0194,-0.0207,-0.0221,-0.0224,-0.0243,-0.0284,-0.031,-0.0323,-0.0328,-0.0341,-0.0361,-0.0321,-0.0348,-0.0349,-0.0349,-0.0378,-0.0382,-0.0344,-0.0344,-0.0344,-0.0344,0,-0.014,-0.0129,-0.0119,-0.0116,-0.0115,-0.0101,-0.0122,-0.0124,-0.0146,-0.0164,-0.0182,-0.0227,-0.0251,-0.0272,-0.0295,-0.0312,-0.0325,-0.0346,-0.035,-0.0346,-0.0377,-0.0382,-0.0341,-0.0342,-0.0342,-0.0343,0,0,-0.0087,-0.0085,-0.0082,-0.0066,-0.0078,-0.0065,-0.0062,-0.0063,-0.0056,-0.0092,-0.0089,-0.0143,-0.0178,-0.0195,-0.0239,-0.0271,-0.0304,-0.0301,-0.0304,-0.0321,-0.0375,-0.0384,-0.039,-0.0329,-0.0329,-0.0329,-0.0396,0,-0.0041,-0.0,-0.0013,0.0031,0.0051,0.0023,0.0037,0.0025,0.0001,-0.0006,-0.0072,-0.0088,-0.0146,-0.016,-0.0204,-0.0278,-0.0313,-0.0284,-0.0383,-0.0386,-0.0388,-0.0394,-0.0365,-0.0422,-0.0401,-0.0401,-0.0402,0,0.001,0.0031,0.0078,0.0108,0.0116,0.0133,0.0145,0.0151,0.0117,0.0098,0.0055,0.0005,-0.0053,-0.0105,-0.0223,-0.0199,-0.0278,-0.034,-0.0345,-0.0366,-0.0402,-0.0424,-0.0431,-0.0598,-0.0409,-0.0408,-0.0408,0,0.006,0.0099,0.0139,0.0148,0.017,0.0188,0.0197,0.0181,0.0198,0.0156,0.0161,0.0076,0.004,-0.0069,-0.0203,-0.0211,-0.0332,-0.0364,-0.0446,-0.0448,-0.0448,-0.0448,-0.0619,-0.0444,-0.0444,-0.0444,-0.0443,0,0.0115,0.0152,0.0166,0.019,0.025,0.0242,0.0291,0.0281,0.0279,0.0305,0.0216,0.0219,0.0048,-0.0042,-0.0173,-0.0318,-0.0314,-0.0435,-0.0465,-0.0434,-0.0433,-0.0598,-0.0705,-0.0446,-0.0446,-0.0445,-0.0445,0,0.0163,0.0169,0.0224,0.0257,0.0272,0.0311,0.036,0.0395,0.0378,0.0405,0.0399,0.0323,0.0211,0.004,-0.014,-0.0269,-0.0517,-0.0467,-0.0415,-0.0438,-0.0666,-0.0771,-0.0976,-0.1084,-0.0565,-0.0566,-0.0566,0,0.0193,0.0218,0.027,0.0307,0.0325,0.038,0.0423,0.0436,0.0472,0.0477,0.0499,0.0411,0.0376,0.0111,-0.0134,-0.036,-0.0539,-0.05,-0.0517,-0.0674,-0.0813,-0.0893,-0.0976,-0.0507,-0.0507,-0.0507,-0.0507,0,0.0248,0.0257,0.0299,0.0367,0.0421,0.049,0.0547,0.0595,0.0611,0.0646,0.0678,0.066,0.0425,0.0217,-0.0105,-0.0275,-0.0634,-0.0507,-0.0687,-0.0795,-0.0875,-0.0993,-0.047,-0.0506,-0.0506,-0.0506,-0.0506,-0.0506,0.0285,0.0323,0.0366,0.0435,0.0499,0.058,0.065,0.0723,0.0801,0.0884,0.0843,0.0888,0.0564,0.0146,-0.0147,-0.0619,-0.0651,-0.0746,-0.0863,-0.0931,-0.1033,-0.0505,-0.0564,-0.0565,-0.0565,-0.0565,-0.0566,0,0.0329,0.0367,0.0433,0.0512,0.0586,0.0612,0.0722,0.0807,0.0922,0.1042,0.1103,0.1029,0.0594,0.0144,-0.0493,-0.0876,-0.105,-0.1102,-0.1216,-0.1287,-0.0821,-0.0815,-0.0909,-0.0909,-0.0908,-0.0908,-0.0908,-0.0908,0.0353,0.0418,0.0448,0.0565,0.0626,0.074,0.0811,0.095,0.1075,0.127,0.1373,0.1413,0.1139,-0.0125,-0.1011,-0.125,-0.1547,-0.1608,-0.1794,-0.1471,-0.1446,-0.1423,-0.1442,-0.1666,-0.1667,-0.2194,-0.22,-0.2204]}],[{"header":{"parameterUnit":"m.s-1","parameterCategory":2,"la1":30.2991,"la2":30.254,"lo1":-89.0895,"lo2":-89.0444,"dy":0.0017,"dx":0.0017,"nx":28,"ny":28,"refTime":"2024-02-10T09:00:00:Z","depth":"2","parameterNumber":2,"parameterNumberName":"U-component_of_CURRENTS"},"data":[0,0,0,0,0,0,0,0,0,0,0,0,0,0,0,0,0,0,0,0,0,0,0,0,0,0,0,0,0,0,0,0,0,0,0,0,0,0,0,0,0,0,0,0,0,0,0,0,0,0,0,0,0,0,0,0,0,0,0.1643,0.1643,0,0.1657,0.1657,0.1657,0.1643,0.1643,0.1642,0.1642,0.1622,0.1622,0.1622,0,0,0,0,0,0,0,0,0,0,0,0,0,0.1601,0.1602,0.1643,0.1643,0.1644,0.1657,0.1657,0.1656,0.1643,0.1643,0.1642,0.1642,0.1622,0.1622,0.1622,0,0,0,0,0,0,0,0,0,0,0,0,0,0.1615,0.1602,0.1643,0.1641,0.1641,0.1657,0.1657,0.1656,0.1643,0.1643,0.1642,0.1642,0.1622,0.1622,0.1622,0.1627,0,0,0.162,0.162,0,0,0,0,0,0,0,0,0.1614,0.1616,0.1641,0.1641,0.1641,0.165,0.1635,0.1646,0.1643,0.1639,0.1642,0.1642,0.1631,0.163,0.1629,0.1626,0.1625,0.162,0.162,0.162,0.162,0,0,0,0,0,0,0,0.1613,0.1615,0.1645,0.1641,0.1642,0.1638,0.1639,0.1637,0.1634,0.1639,0.1639,0.1646,0.163,0.163,0.1629,0.1625,0.162,0.162,0.162,0.1619,0.1632,0.1633,0,0,0,0,0,0,0.1618,0.1614,0.1645,0.1646,0.163,0.1639,0.164,0.1645,0.1635,0.1634,0.1646,0.1645,0.1631,0.1629,0.1628,0.165,0.162,0.1619,0.1619,0.1631,0.1632,0.1633,0,0,0,0,0,0,0.1617,0.1621,0.1645,0.1633,0.1636,0.1641,0.1646,0.1646,0.1645,0.1641,0.1638,0.1646,0.163,0.1629,0.1633,0.1648,0.1619,0.1619,0.1631,0.1632,0.1633,0.1683,0,0,0,0,0,0,0.1616,0.162,0.1622,0.1633,0.1637,0.1659,0.1647,0.1647,0.1651,0.165,0.164,0.1638,0.163,0.1634,0.1633,0.1647,0.1619,0.163,0.1631,0.1632,0.168,0.1685,0.1689,0,0,0,0,0,0.1614,0.1621,0.1622,0.1626,0.1641,0.166,0.1661,0.1661,0.1652,0.1657,0.1652,0.1638,0.164,0.1635,0.1633,0.1647,0.163,0.1631,0.1632,0.1678,0.1684,0.1689,0,0,0,0,0,0,0.16,0.1621,0.1622,0.1634,0.1649,0.1659,0.1664,0.1663,0.1663,0.1658,0.1647,0.1646,0.1653,0.1643,0.1637,0.1653,0.1632,0.1633,0.1667,0.1673,0.1677,0.1698,0.1618,0,0,0,0,0,0.1601,0.1612,0.1631,0.164,0.1648,0.1655,0.1661,0.1663,0.1667,0.1666,0.1659,0.1654,0.1658,0.166,0.1656,0.1667,0.1691,0.1674,0.1679,0.1683,0.1698,0.1761,0.1774,0.1637,0.1637,0.1637,0,0,0.1597,0.1611,0.1616,0.1639,0.1647,0.1666,0.1657,0.1669,0.1685,0.1664,0.1675,0.1667,0.1663,0.1677,0.1679,0.1671,0.1731,0.1684,0.1688,0.1701,0.1764,0.1778,0.179,0.1638,0.1638,0.1638,0,0,0.1603,0.161,0.1624,0.1642,0.1663,0.1671,0.1676,0.1688,0.1692,0.1705,0.1695,0.1705,0.1699,0.1711,0.1714,0.1742,0.1751,0.173,0.1775,0.1837,0.1849,0.1861,0.1902,0.1916,0.1736,0.1737,0.1737,0,0.1595,0.1621,0.1631,0.1654,0.1672,0.1675,0.1697,0.1708,0.1718,0.1734,0.1713,0.1733,0.1722,0.1762,0.1768,0.1755,0.1785,0.1756,0.1846,0.1857,0.1868,0.1908,0.1923,0.1739,0.1739,0.1739,0.1738,0,0.1619,0.1639,0.1651,0.1682,0.1701,0.172,0.1742,0.1755,0.1755,0.1771,0.1801,0.1795,0.1816,0.1806,0.1795,0.1861,0.1856,0.1843,0.1837,0.1886,0.1923,0.1938,0.1743,0.1742,0.1741,0.1741,0,0,0.1594,0.1655,0.1658,0.1683,0.1718,0.1736,0.1769,0.1808,0.1843,0.1846,0.1896,0.1897,0.1902,0.1907,0.1897,0.1939,0.2028,0.1926,0.1928,0.1976,0.2162,0.2175,0.2192,0.2039,0.2042,0.2044,0.2156,0,0.1606,0.1659,0.1686,0.173,0.1756,0.1782,0.1818,0.1854,0.1881,0.1929,0.1942,0.1978,0.194,0.1956,0.1996,0.2027,0.2072,0.1999,0.2099,0.2102,0.2117,0.2212,0.2056,0.2144,0.2171,0.2173,0.2175,0,0.1617,0.1653,0.1703,0.1766,0.178,0.1808,0.1874,0.1909,0.1979,0.2005,0.2052,0.2067,0.2133,0.2086,0.2187,0.2146,0.2162,0.2174,0.2179,0.2189,0.2145,0.2101,0.2171,0.2201,0.2199,0.2197,0.2195,0,0.1596,0.1662,0.1705,0.1725,0.1795,0.1824,0.1861,0.193,0.1974,0.2063,0.2104,0.2182,0.2219,0.2275,0.2296,0.2261,0.2402,0.2357,0.238,0.238,0.2266,0.2252,0.2433,0.2433,0.2433,0.2432,0.2432,0,0.1594,0.1624,0.17,0.172,0.177,0.1824,0.1883,0.1935,0.2024,0.208,0.2143,0.2202,0.227,0.2344,0.2359,0.2436,0.2462,0.2423,0.243,0.2277,0.2263,0.2318,0.2304,0.2437,0.2436,0.2435,0.2434,0,0.1553,0.1608,0.1655,0.1735,0.1759,0.1792,0.1881,0.1924,0.2018,0.2096,0.213,0.225,0.2366,0.2425,0.2522,0.2517,0.2583,0.2587,0.2399,0.2384,0.2501,0.2487,0.2658,0.266,0.2661,0.2662,0.2663,0,0.1542,0.1565,0.1646,0.1671,0.1704,0.1762,0.1795,0.19,0.1949,0.2112,0.2144,0.2297,0.2386,0.256,0.2606,0.2687,0.2651,0.255,0.246,0.2545,0.2534,0.2517,0.2502,0.2315,0.2313,0.2312,0.2311,0,0.1513,0.1543,0.1577,0.1627,0.1666,0.1705,0.1769,0.1811,0.193,0.202,0.2156,0.226,0.2445,0.2494,0.2606,0.261,0.2538,0.2526,0.2689,0.229,0.2234,0.2219,0.2212,0.2297,0.2298,0.2299,0.23,0.2301,0.1486,0.1499,0.1548,0.158,0.1618,0.1641,0.1658,0.1738,0.1824,0.1949,0.2089,0.2202,0.2311,0.2444,0.2418,0.2407,0.2561,0.244,0.2439,0.2442,0.2391,0.2341,0.2413,0.2415,0.2417,0.2418,0.242,0,0.1449,0.1473,0.1502,0.1536,0.1533,0.1582,0.163,0.1641,0.171,0.1867,0.1993,0.1959,0.2064,0.2149,0.2145,0.2193,0.2105,0.2088,0.1946,0.1967,0.1983,0.19,0.1796,0.1793,0.1791,0.1788,0,0,0.1437,0.1441,0.1448,0.1439,0.146,0.1447,0.146,0.1501,0.1598,0.167,0.1748,0.1983,0.2123,0.1917,0.1938,0.186,0.1873,0.1795,0.2314,0.217,0.2181,0.2234,0.2138,0,0,0,0,0]},{"header":{"parameterUnit":"m.s-1","parameterCategory":2,"la1":30.2991,"la2":30.254,"lo1":-89.0895,"lo2":-89.0444,"dy":0.0017,"dx":0.0017,"nx":28,"ny":28,"refTime":"2024-02-10T09:00:00:Z","depth":"2","parameterNumber":3,"parameterNumberName":"V-component_of_CURRENTS"},"data":[0,0,0,0,0,0,0,0,0,0,0,0,0,0,0,0,0,0,0,0,0,0,0,0,0,0,0,0,0,0,0,0,0,0,0,0,0,0,0,0,0,0,0,0,0,0,0,0,0,0,0,0,0,0,0,0,0,0,-0.0314,-0.0315,0,-0.04,-0.0401,-0.0402,-0.0445,-0.0445,-0.0445,-0.0445,-0.0505,-0.0507,-0.0508,0,0,0,0,0,0,0,0,0,0,0,0,0,-0.0224,-0.0226,-0.0313,-0.0315,-0.0316,-0.04,-0.0401,-0.0403,-0.0445,-0.0445,-0.0445,-0.0445,-0.0505,-0.0507,-0.0509,0,0,0,0,0,0,0,0,0,0,0,0,0,-0.0282,-0.0226,-0.0313,-0.0347,-0.0351,-0.04,-0.0401,-0.0403,-0.0445,-0.0445,-0.0445,-0.0445,-0.0504,-0.0506,-0.0509,-0.0525,0,0,-0.0516,-0.0517,0,0,0,0,0,0,0,0,-0.0279,-0.0285,-0.0341,-0.0345,-0.0349,-0.0412,-0.0392,-0.0442,-0.0445,-0.0409,-0.0445,-0.0445,-0.0471,-0.0477,-0.0493,-0.0527,-0.053,-0.0516,-0.0518,-0.0519,-0.052,0,0,0,0,0,0,0,-0.0275,-0.0282,-0.0348,-0.0342,-0.0347,-0.0371,-0.0379,-0.0402,-0.0439,-0.0412,-0.0416,-0.0425,-0.0473,-0.0491,-0.0495,-0.0531,-0.0516,-0.0519,-0.052,-0.0521,-0.0564,-0.0564,0,0,0,0,0,0,-0.0262,-0.0278,-0.0345,-0.0351,-0.0313,-0.0373,-0.0382,-0.0392,-0.0439,-0.0447,-0.0425,-0.0427,-0.0487,-0.0492,-0.0497,-0.0503,-0.0519,-0.0521,-0.0523,-0.0564,-0.0564,-0.0564,0,0,0,0,0,0,-0.026,-0.0267,-0.0342,-0.0316,-0.0327,-0.0374,-0.0385,-0.0393,-0.0411,-0.0449,-0.0456,-0.0434,-0.0487,-0.0494,-0.0517,-0.0506,-0.0522,-0.0525,-0.0565,-0.0564,-0.0564,-0.0524,0,0,0,0,0,0,-0.0257,-0.0266,-0.027,-0.0315,-0.0328,-0.0367,-0.0386,-0.0395,-0.0417,-0.042,-0.046,-0.0466,-0.0488,-0.0513,-0.052,-0.051,-0.0527,-0.0565,-0.0565,-0.0564,-0.0526,-0.0522,-0.0519,0,0,0,0,0,-0.0253,-0.0258,-0.0269,-0.0278,-0.0332,-0.0367,-0.0376,-0.0409,-0.0417,-0.0425,-0.0451,-0.0464,-0.0513,-0.0516,-0.0523,-0.0513,-0.0566,-0.0565,-0.0564,-0.0527,-0.0523,-0.0519,0,0,0,0,0,0,-0.0222,-0.0264,-0.0277,-0.0294,-0.0326,-0.0374,-0.0385,-0.0406,-0.0435,-0.0434,-0.0468,-0.0476,-0.049,-0.0508,-0.051,-0.0523,-0.0538,-0.0539,-0.0508,-0.0504,-0.0501,-0.0482,-0.0529,0,0,0,0,0,-0.0216,-0.023,-0.0272,-0.0286,-0.0298,-0.034,-0.0358,-0.0379,-0.0411,-0.0424,-0.045,-0.0474,-0.0494,-0.0504,-0.0526,-0.0538,-0.0552,-0.0533,-0.053,-0.0527,-0.0516,-0.0543,-0.0541,-0.0561,-0.0561,-0.0561,0,0,-0.021,-0.0233,-0.0242,-0.028,-0.0306,-0.0318,-0.0351,-0.0374,-0.0383,-0.0425,-0.0441,-0.0466,-0.0495,-0.0508,-0.0515,-0.0521,-0.0528,-0.0526,-0.0524,-0.0514,-0.0542,-0.054,-0.0538,-0.0561,-0.0561,-0.0561,0,0,-0.0198,-0.0221,-0.0226,-0.0247,-0.028,-0.0304,-0.0307,-0.035,-0.0366,-0.0389,-0.0415,-0.0436,-0.0469,-0.0487,-0.05,-0.0492,-0.0512,-0.0494,-0.0461,-0.0487,-0.0485,-0.0484,-0.0492,-0.0492,-0.049,-0.049,-0.0489,0,-0.0185,-0.0199,-0.0233,-0.0239,-0.0249,-0.0291,-0.0291,-0.0317,-0.0361,-0.0366,-0.0385,-0.0428,-0.0459,-0.0468,-0.0465,-0.0485,-0.0495,-0.0474,-0.0482,-0.0481,-0.0481,-0.049,-0.049,-0.0488,-0.0488,-0.0488,-0.0488,0,-0.0177,-0.0185,-0.0188,-0.0206,-0.0221,-0.0229,-0.0261,-0.0273,-0.0295,-0.032,-0.0338,-0.0384,-0.0405,-0.0419,-0.0442,-0.0446,-0.0452,-0.0477,-0.0491,-0.0476,-0.0487,-0.0488,-0.0485,-0.0485,-0.0486,-0.0486,0,0,-0.015,-0.0176,-0.0176,-0.017,-0.02,-0.0206,-0.0214,-0.023,-0.0222,-0.0269,-0.0266,-0.0314,-0.0336,-0.0351,-0.0384,-0.0408,-0.042,-0.0434,-0.0436,-0.0438,-0.046,-0.0467,-0.0469,-0.0446,-0.0446,-0.0446,-0.0465,0,-0.013,-0.0126,-0.0146,-0.0132,-0.0129,-0.0155,-0.0152,-0.017,-0.0192,-0.0199,-0.0249,-0.0261,-0.0311,-0.0315,-0.0349,-0.0401,-0.0422,-0.0411,-0.0476,-0.0477,-0.0484,-0.0471,-0.0447,-0.0462,-0.0467,-0.0467,-0.0467,0,-0.0112,-0.0109,-0.0095,-0.0082,-0.008,-0.0075,-0.0064,-0.007,-0.0093,-0.011,-0.0137,-0.0174,-0.0212,-0.026,-0.034,-0.0329,-0.0385,-0.0431,-0.0434,-0.0453,-0.0487,-0.048,-0.0465,-0.0469,-0.0469,-0.0469,-0.0469,0,-0.0071,-0.0067,-0.005,-0.0049,-0.0047,-0.0032,-0.0029,-0.0039,-0.0023,-0.0052,-0.004,-0.0103,-0.0119,-0.0207,-0.0303,-0.032,-0.0389,-0.0429,-0.0485,-0.0486,-0.0484,-0.0485,-0.0481,-0.0481,-0.0481,-0.0481,-0.0481,0,-0.0038,-0.002,-0.0026,-0.0012,0.003,0.0014,0.0055,0.0048,0.0057,0.0092,0.0013,0.0033,-0.0106,-0.0162,-0.0269,-0.0371,-0.0365,-0.047,-0.0492,-0.0469,-0.0468,-0.0492,-0.0493,-0.0482,-0.0482,-0.0482,-0.0482,0,0.0002,-0.0007,0.0022,0.0037,0.0048,0.0078,0.0119,0.0154,0.0146,0.019,0.019,0.0143,0.0067,-0.0069,-0.0201,-0.031,-0.0421,-0.0457,-0.0411,-0.0428,-0.0509,-0.0508,-0.0526,-0.0527,-0.0527,-0.0527,-0.0528,0,0.0021,0.0035,0.0064,0.0094,0.0105,0.0145,0.0184,0.0195,0.0241,0.0269,0.0306,0.0253,0.0237,0.0036,-0.0171,-0.0354,-0.0391,-0.0457,-0.0497,-0.0494,-0.0514,-0.0512,-0.051,-0.0475,-0.0475,-0.0475,-0.0475,0,0.0065,0.007,0.0098,0.0157,0.0203,0.026,0.0317,0.0372,0.0398,0.0442,0.0505,0.05,0.0308,0.0134,-0.0133,-0.0269,-0.0433,-0.046,-0.0465,-0.047,-0.0448,-0.0467,-0.0467,-0.0473,-0.0474,-0.0474,-0.0474,-0.0474,0.0103,0.0133,0.017,0.0233,0.0291,0.0379,0.0448,0.0521,0.0612,0.0707,0.0676,0.0684,0.045,0.0134,-0.0124,-0.0407,-0.0406,-0.0501,-0.05,-0.05,-0.0493,-0.0474,-0.0501,-0.0501,-0.0502,-0.0502,-0.0502,0,0.0156,0.0189,0.0248,0.0328,0.041,0.0426,0.0546,0.0627,0.0757,0.0835,0.0894,0.0715,0.0493,0.0215,-0.0197,-0.0447,-0.0479,-0.0526,-0.0508,-0.0507,-0.0507,-0.0501,-0.0511,-0.0512,-0.0512,-0.0513,0,0,0.0186,0.0251,0.0282,0.042,0.0484,0.061,0.069,0.0811,0.0898,0.1004,0.1022,0.0985,0.0622,0.0336,-0.002,-0.0261,-0.0328,-0.0315,-0.0281,-0.0217,-0.0213,-0.0467,-0.0452,0,0,0,0,0]}],[{"header":{"parameterUnit":"m.s-1","parameterCategory":2,"la1":30.2991,"la2":30.254,"lo1":-89.0895,"lo2":-89.0444,"dy":0.0017,"dx":0.0017,"nx":28,"ny":28,"refTime":"2024-02-10T09:00:00:Z","depth":"4","parameterNumber":2,"parameterNumberName":"U-component_of_CURRENTS"},"data":[0,0,0,0,0,0,0,0,0,0,0,0,0,0,0,0,0,0,0,0,0,0,0,0,0,0,0,0,0,0,0,0,0,0,0,0,0,0,0,0,0,0,0,0,0,0,0,0,0,0,0,0,0,0,0,0,0,0,0.1097,0.1098,0,0.115,0.115,0.1151,0.1196,0.1197,0.1197,0.1198,0.1245,0.1246,0.1246,0,0,0,0,0,0,0,0,0,0,0,0,0,0.1028,0.1029,0.1097,0.1098,0.1098,0.1149,0.115,0.1151,0.1196,0.1197,0.1197,0.1198,0.1245,0.1245,0.1246,0,0,0,0,0,0,0,0,0,0,0,0,0,0.1066,0.1029,0.1097,0.1128,0.1131,0.1149,0.115,0.1151,0.1196,0.1197,0.1198,0.1198,0.1244,0.1245,0.1246,0.1234,0,0,0.1249,0.125,0,0,0,0,0,0,0,0,0.1064,0.1068,0.1123,0.1126,0.113,0.1168,0.1143,0.1179,0.1196,0.117,0.1198,0.1199,0.1219,0.1222,0.1228,0.1236,0.1238,0.125,0.125,0.1251,0.1251,0,0,0,0,0,0,0,0.1061,0.1066,0.1117,0.1123,0.1128,0.1137,0.1143,0.115,0.1188,0.1172,0.1176,0.1183,0.1221,0.1227,0.123,0.1239,0.125,0.125,0.1251,0.1251,0.1321,0.1323,0,0,0,0,0,0,0.1056,0.1064,0.1115,0.1118,0.11,0.1137,0.1144,0.1154,0.1188,0.1194,0.1183,0.1185,0.1225,0.1228,0.1232,0.1294,0.1251,0.1252,0.1252,0.132,0.1322,0.1323,0,0,0,0,0,0,0.1055,0.106,0.1113,0.1093,0.11,0.1138,0.1148,0.1155,0.1186,0.1196,0.1202,0.1211,0.1226,0.123,0.1264,0.1294,0.1252,0.1253,0.1319,0.1321,0.1322,0.1371,0,0,0,0,0,0,0.1052,0.1059,0.1076,0.1093,0.1101,0.1142,0.1147,0.1155,0.1188,0.1193,0.1221,0.1225,0.1227,0.1262,0.1265,0.1294,0.1254,0.1317,0.132,0.1322,0.1368,0.1374,0.138,0,0,0,0,0,0.105,0.1067,0.1076,0.1083,0.1119,0.1143,0.1149,0.1177,0.1189,0.1208,0.1229,0.1226,0.1279,0.1264,0.1267,0.1297,0.1316,0.1319,0.1322,0.1365,0.1373,0.138,0,0,0,0,0,0,0.1049,0.1073,0.1084,0.111,0.1133,0.1152,0.1176,0.1189,0.122,0.1231,0.1238,0.1244,0.1285,0.1283,0.1266,0.1324,0.1298,0.1302,0.133,0.1338,0.1344,0.1343,0.1255,0,0,0,0,0,0.1054,0.1074,0.1096,0.112,0.1134,0.1157,0.1175,0.1192,0.1216,0.1232,0.1254,0.1275,0.1293,0.131,0.1324,0.1353,0.136,0.1376,0.1382,0.1387,0.1389,0.1419,0.1428,0.1332,0.1332,0.1332,0,0,0.1059,0.1077,0.109,0.1121,0.1143,0.1167,0.1171,0.1205,0.1231,0.123,0.1282,0.1297,0.1305,0.1343,0.1361,0.1348,0.1423,0.139,0.1395,0.1394,0.1423,0.1432,0.144,0.1334,0.1334,0.1333,0,0,0.1074,0.1099,0.1119,0.114,0.1176,0.119,0.1204,0.1238,0.1264,0.1303,0.1314,0.1346,0.1377,0.1393,0.1401,0.1447,0.1452,0.1458,0.1491,0.1521,0.1529,0.1536,0.1578,0.1588,0.1463,0.1463,0.1463,0,0.1081,0.1109,0.113,0.1154,0.1177,0.1203,0.123,0.1255,0.1299,0.1323,0.1329,0.139,0.1399,0.144,0.1461,0.1461,0.1484,0.1462,0.1529,0.1536,0.1542,0.1583,0.1594,0.1466,0.1466,0.1465,0.1465,0,0.1103,0.1135,0.1151,0.1189,0.1216,0.1246,0.1278,0.1315,0.1347,0.1372,0.143,0.1447,0.1484,0.1495,0.1492,0.1547,0.1553,0.1531,0.1509,0.1555,0.1595,0.1606,0.147,0.1469,0.1468,0.1467,0,0,0.1092,0.1154,0.1162,0.1188,0.1239,0.126,0.1309,0.1357,0.1396,0.1441,0.1493,0.1529,0.1549,0.1559,0.1568,0.1593,0.1664,0.1589,0.1589,0.1629,0.175,0.1674,0.1678,0.1659,0.166,0.1662,0.1768,0,0.1106,0.1154,0.1184,0.1236,0.1264,0.1305,0.1347,0.1395,0.144,0.1498,0.1528,0.1579,0.157,0.1599,0.1626,0.1655,0.1691,0.1638,0.1701,0.1703,0.1628,0.1687,0.1667,0.1775,0.1778,0.1779,0.1781,0,0.1112,0.1147,0.1198,0.1263,0.1281,0.1317,0.1392,0.1434,0.151,0.1548,0.1604,0.1632,0.1693,0.1669,0.1749,0.1721,0.1744,0.1758,0.1761,0.1676,0.1645,0.1716,0.1799,0.1798,0.1796,0.1795,0.1794,0,0.1085,0.1154,0.1197,0.122,0.1295,0.1333,0.138,0.1454,0.1501,0.159,0.1637,0.1701,0.1755,0.1785,0.1829,0.1799,0.1911,0.1868,0.1823,0.1819,0.1833,0.1823,0.1919,0.1919,0.1919,0.1919,0.1918,0,0.1074,0.1111,0.1193,0.1215,0.1271,0.1331,0.1398,0.1453,0.1542,0.16,0.1668,0.1722,0.1787,0.1855,0.1867,0.1892,0.1949,0.1843,0.1841,0.1854,0.1846,0.1841,0.1831,0.1923,0.1922,0.1921,0.192,0,0.1033,0.1088,0.114,0.1228,0.1259,0.13,0.1404,0.145,0.1545,0.1625,0.166,0.1771,0.1859,0.192,0.1991,0.1944,0.1966,0.1959,0.2005,0.2001,0.1845,0.1836,0.1908,0.1906,0.1905,0.1904,0.1903,0,0.1013,0.1037,0.1135,0.1169,0.1214,0.1286,0.1333,0.1437,0.1486,0.1639,0.1669,0.1801,0.1862,0.1912,0.1976,0.2018,0.1988,0.1987,0.1875,0.1853,0.1845,0.1838,0.1831,0.19,0.19,0.1899,0.1899,0,0.0972,0.1016,0.106,0.1129,0.1186,0.1241,0.132,0.1346,0.1466,0.1568,0.1641,0.1697,0.1805,0.1862,0.1924,0.1936,0.1973,0.197,0.1972,0.1866,0.1844,0.1836,0.1831,0.1894,0.1894,0.1895,0.1895,0,0.0941,0.096,0.1024,0.1076,0.1144,0.1177,0.1225,0.1288,0.135,0.1506,0.1533,0.1673,0.1786,0.1825,0.1876,0.1897,0.1852,0.1768,0.1779,0.1785,0.1696,0.1647,0.1648,0,0,0,0,0,0.0901,0.0921,0.0967,0.1016,0.1079,0.112,0.1208,0.1258,0.1369,0.1384,0.1452,0.1541,0.1627,0.1705,0.1703,0.1833,0.1864,0.1822,0.1772,0.1864,0.187,0.1776,0,0,0,0,0,0,0.0877,0.0919,0.0942,0.0956,0.0979,0.1038,0.1089,0.1166,0.1177,0.1298,0.1356,0.1453,0.1564,0.1617,0.1675,0.1699,0.1638,0.1912,0.1909,0.1861,0.1866,0.1871,0.1776,0,0,0,0,0]},{"header":{"parameterUnit":"m.s-1","parameterCategory":2,"la1":30.2991,"la2":30.254,"lo1":-89.0895,"lo2":-89.0444,"dy":0.0017,"dx":0.0017,"nx":28,"ny":28,"refTime":"2024-02-10T09:00:00:Z","depth":"4","parameterNumber":3,"parameterNumberName":"V-component_of_CURRENTS"},"data":[0,0,0,0,0,0,0,0,0,0,0,0,0,0,0,0,0,0,0,0,0,0,0,0,0,0,0,0,0,0,0,0,0,0,0,0,0,0,0,0,0,0,0,0,0,0,0,0,0,0,0,0,0,0,0,0,0,0,-0.0042,-0.0042,0,-0.0097,-0.0098,-0.0098,-0.0131,-0.0131,-0.0131,-0.0132,-0.02,-0.0202,-0.0203,0,0,0,0,0,0,0,0,0,0,0,0,0,0.0018,0.0018,-0.0041,-0.0042,-0.0043,-0.0097,-0.0098,-0.0099,-0.0131,-0.0131,-0.0131,-0.0132,-0.0199,-0.0201,-0.0203,0,0,0,0,0,0,0,0,0,0,0,0,0,-0.002,0.0017,-0.0041,-0.0065,-0.0068,-0.0097,-0.0098,-0.0099,-0.0131,-0.0131,-0.0131,-0.0132,-0.0199,-0.0201,-0.0204,-0.0216,0,0,-0.0211,-0.0213,0,0,0,0,0,0,0,0,-0.0017,-0.0022,-0.0061,-0.0064,-0.0067,-0.0107,-0.0102,-0.0138,-0.0131,-0.0107,-0.0132,-0.0132,-0.017,-0.0175,-0.0185,-0.0219,-0.0222,-0.0212,-0.0213,-0.0214,-0.0215,0,0,0,0,0,0,0,-0.0015,-0.002,-0.0064,-0.0062,-0.0065,-0.008,-0.0085,-0.0109,-0.0137,-0.011,-0.0112,-0.0118,-0.0171,-0.0182,-0.0187,-0.0223,-0.0212,-0.0214,-0.0215,-0.0216,-0.0279,-0.0279,0,0,0,0,0,0,-0.0006,-0.0017,-0.0062,-0.0065,-0.0042,-0.008,-0.0087,-0.0094,-0.0137,-0.0143,-0.0118,-0.0119,-0.0178,-0.0184,-0.0189,-0.0211,-0.0214,-0.0217,-0.0218,-0.0279,-0.0279,-0.0279,0,0,0,0,0,0,-0.0005,-0.001,-0.006,-0.0042,-0.0049,-0.0081,-0.009,-0.0095,-0.0111,-0.0143,-0.015,-0.0128,-0.0178,-0.0186,-0.0214,-0.0214,-0.0218,-0.022,-0.0279,-0.0279,-0.0279,-0.0251,0,0,0,0,0,0,-0.0003,-0.0009,-0.0014,-0.0042,-0.005,-0.0079,-0.009,-0.0096,-0.0114,-0.0116,-0.0154,-0.016,-0.0179,-0.021,-0.0217,-0.0217,-0.0222,-0.0279,-0.0279,-0.0279,-0.0252,-0.0251,-0.0249,0,0,0,0,0,-0.0001,-0.0009,-0.0014,-0.002,-0.0055,-0.0079,-0.0085,-0.0108,-0.0114,-0.0123,-0.0146,-0.0159,-0.0216,-0.0213,-0.022,-0.0221,-0.0279,-0.0279,-0.0279,-0.0253,-0.0251,-0.0249,0,0,0,0,0,0,0.0008,-0.0014,-0.002,-0.0037,-0.0056,-0.0085,-0.0097,-0.0109,-0.0134,-0.0137,-0.0164,-0.0173,-0.0198,-0.0214,-0.0209,-0.024,-0.0248,-0.025,-0.0225,-0.0224,-0.0223,-0.0211,-0.0224,0,0,0,0,0,0.001,0.0001,-0.0023,-0.0036,-0.0044,-0.0069,-0.0082,-0.0096,-0.012,-0.0132,-0.0158,-0.0183,-0.0204,-0.0217,-0.0242,-0.026,-0.0275,-0.0265,-0.0263,-0.0262,-0.0258,-0.0281,-0.0281,-0.028,-0.028,-0.028,0,0,0.0009,-0.0003,-0.001,-0.0034,-0.0051,-0.006,-0.0078,-0.0097,-0.0105,-0.0135,-0.0158,-0.0182,-0.0209,-0.023,-0.0241,-0.0243,-0.0271,-0.0262,-0.0261,-0.0258,-0.0281,-0.0281,-0.0281,-0.0281,-0.0281,-0.0281,0,0,0.0007,-0.0007,-0.0013,-0.0026,-0.0047,-0.0059,-0.0063,-0.0092,-0.0106,-0.0128,-0.015,-0.0172,-0.021,-0.0226,-0.0238,-0.0243,-0.0265,-0.0252,-0.0234,-0.0256,-0.0256,-0.0256,-0.0276,-0.0278,-0.0248,-0.0248,-0.0248,0,0.0007,-0.0002,-0.002,-0.0027,-0.0033,-0.0056,-0.0059,-0.0076,-0.0111,-0.0118,-0.0132,-0.018,-0.0205,-0.0221,-0.0224,-0.0239,-0.0256,-0.0237,-0.0253,-0.0254,-0.0255,-0.0275,-0.0277,-0.0247,-0.0247,-0.0247,-0.0247,0,0.0003,-0.0002,-0.0008,-0.0018,-0.0028,-0.0037,-0.0055,-0.0067,-0.0083,-0.01,-0.0126,-0.0161,-0.0185,-0.0198,-0.0214,-0.0228,-0.024,-0.025,-0.0255,-0.0253,-0.0274,-0.0278,-0.0245,-0.0246,-0.0246,-0.0246,0,0,0.0002,-0.0007,-0.0009,-0.0002,-0.0021,-0.0025,-0.0035,-0.0048,-0.0045,-0.0085,-0.0089,-0.0131,-0.0149,-0.0164,-0.0188,-0.0208,-0.023,-0.0229,-0.023,-0.0243,-0.0279,-0.0271,-0.0274,-0.0244,-0.0245,-0.0245,-0.0292,0,0.0006,0.0008,-0.0001,0.0006,0.0009,-0.0005,-0.0007,-0.002,-0.0037,-0.0048,-0.0085,-0.0102,-0.0136,-0.0144,-0.0171,-0.0213,-0.0237,-0.0216,-0.0283,-0.0285,-0.0274,-0.0277,-0.0246,-0.0294,-0.0295,-0.0296,-0.0296,0,0.0007,0.0012,0.002,0.0034,0.0034,0.0035,0.0041,0.0035,0.0014,0.0001,-0.0027,-0.0055,-0.009,-0.0118,-0.0192,-0.0177,-0.0226,-0.0261,-0.0264,-0.0267,-0.0283,-0.0298,-0.0303,-0.0302,-0.0302,-0.0301,-0.0301,0,0.0027,0.0031,0.0044,0.0045,0.005,0.0056,0.0058,0.0048,0.0058,0.0031,0.0039,-0.0019,-0.0034,-0.0107,-0.0181,-0.0189,-0.026,-0.028,-0.0321,-0.0321,-0.0326,-0.0325,-0.0334,-0.0334,-0.0334,-0.0334,-0.0334,0,0.0039,0.0052,0.0056,0.0064,0.0092,0.0082,0.0106,0.01,0.0101,0.0125,0.0067,0.0077,-0.0031,-0.0082,-0.0166,-0.0248,-0.0252,-0.0316,-0.0331,-0.0314,-0.0311,-0.0329,-0.0327,-0.0336,-0.0335,-0.0335,-0.0335,0,0.0059,0.0058,0.008,0.0093,0.0102,0.012,0.0147,0.017,0.0161,0.0192,0.019,0.0148,0.0081,-0.0026,-0.0138,-0.0212,-0.0301,-0.0331,-0.0297,-0.031,-0.0354,-0.0351,-0.0385,-0.0385,-0.0385,-0.0385,-0.0386,0,0.0069,0.008,0.0107,0.013,0.0138,0.0165,0.0192,0.0196,0.0227,0.0245,0.0271,0.022,0.0177,0.0038,-0.0098,-0.0264,-0.0289,-0.0344,-0.0361,-0.0347,-0.0359,-0.0356,-0.0352,-0.0386,-0.0386,-0.0386,-0.0386,0,0.0095,0.0101,0.0123,0.017,0.0204,0.0248,0.0287,0.0318,0.0336,0.0329,0.0358,0.0282,0.0207,0.0067,-0.0063,-0.0185,-0.0316,-0.0346,-0.0347,-0.0363,-0.0348,-0.0359,-0.0356,-0.0386,-0.0386,-0.0386,-0.0386,0,0.0118,0.0141,0.0171,0.0216,0.0265,0.0328,0.0339,0.0384,0.0411,0.0429,0.0438,0.0349,0.0288,0.0109,-0.0008,-0.0131,-0.0173,-0.0222,-0.0231,-0.0232,-0.0182,-0.0141,-0.0124,0,0,0,0,0,0.0143,0.0175,0.0218,0.0274,0.0325,0.0358,0.0409,0.0417,0.0435,0.0473,0.0459,0.0394,0.023,0.0156,0.0037,-0.0036,-0.0215,-0.0184,-0.028,-0.0387,-0.0387,-0.0354,0,0,0,0,0,0,0.0163,0.0204,0.0226,0.0316,0.0365,0.043,0.0468,0.048,0.0496,0.0495,0.0416,0.0362,0.0201,0.0311,0.004,-0.0002,-0.0082,-0.0268,-0.0271,-0.0387,-0.0387,-0.0387,-0.0353,0,0,0,0,0]}]]